Tracking 19219 objects as of 19-Jul-2018
HD Live streaming from Space Station
objects crossing your sky now

FENGYUN 1C DEB

Track FENGYUN 1C DEB now!
10-day predictions


NORAD ID: 31820
Int'l Code: 1999-025CHJ
Perigee: 537.3 km
Apogee: 909.4 km
Inclination: 98.9 °
Period: 99.1 minutes
Semi major axis: 7094 km
RCS: 0.0132 m2 (small)
Launch date: May 10, 1999
Source: People's Republic of China (PRC)
Launch site: Taiyaun Space Center, China (TSC)

Note: This is SATELLITE DEBRIS
aabbcc
Your satellite tracking list
Your tracking list is empty




NASA's NSSDC Master Catalog

Two Line Element Set (TLE):
1 31820U 99025CHJ 18199.57494199  .00000610  00000-0  10495-3 0  9994
2 31820  98.9171 109.0694 0262245  11.8778 348.8442 14.52882794587602
Source of the keplerian elements: AFSPC